| time (UTC) | temp F | wind direction | speed MPH | gust MPH | rain 1hr in | rain 24hr in | rain mn in | humidity % | barometer mb |
| 20260505124524 | 73 | 192 | 6.0 | 0.0 | 0.00 | 0.00 | 0.00 | 31 | 1014.2 |
| 20260505123036 | 72 | 188 | 6.0 | 0.0 | 0.00 | 0.00 | 0.00 | 32 | 1014.4 |
| 20260505121523 | 72 | 200 | 5.0 | 0.0 | 0.00 | 0.00 | 0.00 | 32 | 1014.5 |
| 20260505120017 | 71 | 140 | 8.0 | 0.0 | 0.00 | 0.00 | 0.00 | 32 | 1014.6 |
| 20260505114515 | 71 | 190 | 6.0 | 0.0 | 0.00 | 0.00 | 0.00 | 35 | 1014.6 |
| 20260505113017 | 71 | 134 | 6.0 | 0.0 | 0.00 | 0.00 | 0.00 | 37 | 1014.7 |
| 20260505111517 | 71 | 182 | 6.0 | 0.0 | 0.00 | 0.00 | 0.00 | 40 | 1014.8 |
| 20260505101508 | 70 | 188 | 6.0 | 0.0 | 0.00 | 0.00 | 0.00 | 42 | 1015.1 |
| 20260505100005 | 69 | 222 | 8.0 | 0.0 | 0.00 | 0.00 | 0.00 | 40 | 1015.1 |
| 20260505094503 | 69 | 165 | 5.0 | 0.0 | 0.00 | 0.00 | 0.00 | 45 | 1015.1 |
| 20260505093004 | 69 | 138 | 5.0 | 0.0 | 0.00 | 0.00 | 0.00 | 49 | 1015.2 |
| 20260505091503 | 69 | 156 | 5.0 | 0.0 | 0.00 | 0.00 | 0.00 | 51 | 1015.4 |
| 20260505090111 | 69 | 105 | 4.0 | 0.0 | 0.00 | 0.00 | 0.00 | 48 | 1015.2 |
| 20260505084600 | 68 | 170 | 3.0 | 0.0 | 0.00 | 0.00 | 0.00 | 53 | 1015.4 |
| 20260505083108 | 68 | 132 | 4.0 | 0.0 | 0.00 | 0.00 | 0.00 | 47 | 1015.5 |
| 20260505081554 | 67 | 137 | 3.0 | 0.0 | 0.00 | 0.00 | 0.00 | 44 | 1015.6 |
| 20260505080055 | 67 | 134 | 3.0 | 0.0 | 0.00 | 0.00 | 0.00 | 41 | 1015.6 |
| 20260505074550 | 66 | 261 | 3.0 | 0.0 | 0.00 | 0.00 | 0.00 | 40 | 1015.7 |
| 20260505073057 | 66 | 90 | 2.0 | 0.0 | 0.00 | 0.00 | 0.00 | 43 | 1015.7 |
| 20260505071547 | 65 | 100 | 0.0 | 0.0 | 0.00 | 0.00 | 0.00 | 41 | 1015.6 |
| 20260505070052 | 64 | 100 | 1.0 | 0.0 | 0.00 | 0.00 | 0.00 | 43 | 1015.6 |
| 20260505064541 | 63 | 99 | 1.0 | 0.0 | 0.00 | 0.00 | 0.00 | 46 | 1015.5 |
| 20260505063042 | 63 | 100 | 0.0 | 0.0 | 0.00 | 0.00 | 0.00 | 47 | 1015.5 |
| 20260505061538 | 62 | 100 | 0.0 | 0.0 | 0.00 | 0.00 | 0.00 | 49 | 1015.4 |
| 20260505060036 | 62 | 99 | 1.0 | 0.0 | 0.00 | 0.00 | 0.00 | 52 | 1015.3 |
| 20260505054533 | 60 | 100 | 2.0 | 0.0 | 0.00 | 0.00 | 0.00 | 55 | 1015.5 |
| 20260505053029 | 60 | 100 | 1.0 | 0.0 | 0.00 | 0.00 | 0.00 | 58 | 1015.4 |
| 20260505051528 | 59 | 100 | 0.0 | 0.0 | 0.00 | 0.00 | 0.00 | 60 | 1015.3 |
| 20260505041538 | 55 | 100 | 0.0 | 0.0 | 0.00 | 0.00 | 0.00 | 61 | 1015.2 |
| 20260505040021 | 54 | 99 | 0.0 | 0.0 | 0.00 | 0.00 | 0.00 | 64 | 1015.1 |
| 20260505034519 | 54 | 99 | 0.0 | 0.0 | 0.00 | 0.00 | 0.00 | 66 | 1015.0 |
| 20260505033019 | 55 | 99 | 0.0 | 0.0 | 0.00 | 0.00 | 0.00 | 69 | 1015.0 |
| 20260505031519 | 55 | 99 | 1.0 | 0.0 | 0.00 | 0.00 | 0.00 | 71 | 1015.0 |
| 20260505030017 | 55 | 99 | 0.0 | 0.0 | 0.00 | 0.00 | 0.00 | 71 | 1015.0 |
| 20260505024518 | 56 | 99 | 0.0 | 0.0 | 0.00 | 0.00 | 0.00 | 71 | 1015.0 |
| 20260505023016 | 56 | 99 | 0.0 | 0.0 | 0.00 | 0.00 | 0.00 | 70 | 1015.1 |
| 20260505021513 | 57 | 99 | 0.0 | 0.0 | 0.00 | 0.00 | 0.00 | 69 | 1015.1 |
| 20260505020017 | 57 | 99 | 0.0 | 0.0 | 0.00 | 0.00 | 0.00 | 69 | 1015.2 |
| 20260505014512 | 57 | 99 | 0.0 | 0.0 | 0.00 | 0.00 | 0.00 | 68 | 1015.3 |
| 20260505013013 | 57 | 99 | 0.0 | 0.0 | 0.00 | 0.00 | 0.00 | 67 | 1015.3 |
| 20260505011511 | 57 | 98 | 1.0 | 0.0 | 0.00 | 0.00 | 0.00 | 66 | 1015.4 |
| 20260505010007 | 57 | 71 | 1.0 | 0.0 | 0.00 | 0.00 | 0.00 | 66 | 1015.5 |
| 20260505004506 | 57 | 71 | 0.0 | 0.0 | 0.00 | 0.00 | 0.00 | 64 | 1015.5 |
| 20260505003004 | 56 | 71 | 0.0 | 0.0 | 0.00 | 0.00 | 0.00 | 61 | 1015.6 |
| 20260505001503 | 56 | 71 | 0.0 | 0.0 | 0.00 | 0.00 | 0.00 | 60 | 1015.6 |
| 20260505000139 | 55 | 71 | 0.0 | 0.0 | 0.00 | 0.00 | 0.00 | 60 | 1015.9 |
| 20260504234614 | 55 | 71 | 0.0 | 0.0 | 0.00 | 0.00 | 0.00 | 60 | 1016.0 |
| 20260504233107 | 55 | 71 | 0.0 | 0.0 | 0.00 | 0.00 | 0.00 | 61 | 1016.0 |
| 20260504231558 | 55 | 71 | 0.0 | 0.0 | 0.00 | 0.00 | 0.00 | 60 | 1016.1 |
| 20260504230056 | 56 | 71 | 0.0 | 0.0 | 0.00 | 0.00 | 0.00 | 61 | 1016.3 |
| 20260504224608 | 56 | 71 | 0.0 | 0.0 | 0.00 | 0.00 | 0.00 | 61 | 1016.4 |
| 20260504223052 | 55 | 71 | 0.0 | 0.0 | 0.00 | 0.00 | 0.00 | 59 | 1016.5 |
| 20260504221550 | 55 | 71 | 0.0 | 0.0 | 0.00 | 0.00 | 0.00 | 56 | 1016.7 |
| 20260504220050 | 55 | 71 | 0.0 | 0.0 | 0.00 | 0.00 | 0.00 | 55 | 1016.7 |
| 20260504214548 | 55 | 71 | 0.0 | 0.0 | 0.00 | 0.00 | 0.00 | 54 | 1016.7 |
| 20260504213107 | 55 | 71 | 0.0 | 0.0 | 0.00 | 0.00 | 0.00 | 54 | 1016.7 |
| 20260504211545 | 56 | 71 | 0.0 | 0.0 | 0.00 | 0.00 | 0.00 | 52 | 1016.7 |
| 20260504210043 | 56 | 71 | 0.0 | 0.0 | 0.00 | 0.00 | 0.00 | 50 | 1016.7 |
| 20260504204542 | 56 | 71 | 0.0 | 0.0 | 0.00 | 0.00 | 0.00 | 48 | 1016.7 |
| 20260504203047 | 56 | 71 | 1.0 | 0.0 | 0.00 | 0.00 | 0.00 | 47 | 1016.8 |
| 20260504201542 | 56 | 71 | 1.0 | 0.0 | 0.00 | 0.00 | 0.00 | 48 | 1016.8 |
| 20260504200044 | 56 | 113 | 0.0 | 0.0 | 0.00 | 0.00 | 0.00 | 51 | 1016.9 |
| 20260504194555 | 56 | 113 | 0.0 | 0.0 | 0.00 | 0.00 | 0.00 | 57 | 1016.9 |
| 20260504193051 | 57 | 113 | 0.0 | 0.0 | 0.00 | 0.00 | 0.00 | 59 | 1016.7 |
| 20260504191540 | 58 | 113 | 0.0 | 0.0 | 0.00 | 0.00 | 0.00 | 60 | 1016.6 |
| 20260504190041 | 58 | 113 | 0.0 | 0.0 | 0.00 | 0.00 | 0.00 | 61 | 1016.7 |
| 20260504184539 | 58 | 113 | 1.0 | 0.0 | 0.00 | 0.00 | 0.00 | 60 | 1016.6 |
| 20260504183038 | 58 | 113 | 0.0 | 0.0 | 0.00 | 0.00 | 0.00 | 60 | 1016.5 |
| 20260504181538 | 59 | 113 | 1.0 | 0.0 | 0.00 | 0.00 | 0.00 | 60 | 1016.4 |
| 20260504180038 | 59 | 113 | 1.0 | 0.0 | 0.00 | 0.00 | 0.00 | 60 | 1016.3 |
| 20260504174537 | 59 | 113 | 0.0 | 0.0 | 0.00 | 0.00 | 0.00 | 60 | 1016.3 |
| 20260504173045 | 59 | 113 | 2.0 | 0.0 | 0.00 | 0.00 | 0.00 | 59 | 1016.2 |
| 20260504171537 | 60 | 151 | 1.0 | 0.0 | 0.00 | 0.00 | 0.00 | 58 | 1016.1 |